Regional Weather Roundup
Issued by NWS

Home | Current Version | Previous Version | Graphics & Text | Print | Product List | Glossary On
Versions: 1 2 3 4 5 6 7 8 9 10 11 12 13 14 15 16 17 18 19 20 21 22 23 24 25 26 27 28 29 30 31 32 33 34 35 36 37 38 39 40 41 42 43 44 45 46 47 48 49 50
000
ASUS45 KCYS 051310
RWRWY

WYOMING REGIONAL WEATHER ROUNDUP
NATIONAL WEATHER SERVICE CHEYENNE WY
700 AM MDT SUN JUL 05 2015

NOTE:  "FAIR" INDICATES FEW OR NO CLOUDS BELOW 12,000 FEET
WITH NO SIGNIFICANT WEATHER AND/OR OBSTRUCTIONS TO VISIBILITY.

WYZ001-051400-
YELLOWSTONE NATIONAL PARK

CITY           SKY/WX    TMP DP  RH WIND       PRES   REMARKS
LK YELLOWSTONE   N/A     51  43  74 CALM      30.19R
W YELLOWSTONE  NOT AVBL

$$
WYZ002>013-054>058-071-098>099-051400-
NORTHERN WYOMING

CITY           SKY/WX    TMP DP  RH WIND       PRES   REMARKS
JACKSON        PTSUNNY   64  46  52 NW3       30.08R
CODY           CLOUDY    63  52  67 N20G25    30.03R
GREYBULL       FAIR      72  58  61 NW23G32   29.84R
WORLAND        FAIR      65  56  72 N6G20     29.88R
SHERIDAN       FAIR      67  59  75 NW18      29.95R
BUFFALO        FAIR      66  56  70 NW32G48   29.91R
GILLETTE       FAIR      72  58  61 S6        29.83R
HULETT         FAIR      73  57  56 SW9       29.82S
NEWCASTLE      FAIR      72  57  60 SE5       29.86S

$$
WYZ014>020-022>026-101>103-051400-
CENTRAL WYOMING

CITY           SKY/WX    TMP DP  RH WIND       PRES   REMARKS
BIG PINEY      CLOUDY    59  39  47 E6        30.14R
PINEDALE       PTSUNNY   55  43  62 W6        30.15R
DUBOIS         FAIR      55  34  44 MISG      30.10S
LANDER         FAIR      68  43  40 N3        29.96R
RIVERTON       FAIR      69  42  37 VRB5      29.96R
CASPER         FAIR      74  47  38 SW17G24   29.93S
DOUGLAS        FAIR      67  56  67 CALM      29.92R

$$
WYZ021-027>030-104>119-051400-
SOUTHERN WYOMING

CITY           SKY/WX    TMP DP  RH WIND       PRES   REMARKS
EVANSTON       LGT RAIN  60  53  77 SW12      30.20R
KEMMERER       RAIN      63  48  59 W14       30.19R
FORT BRIDGER   CLOUDY    63  54  72 W12       30.20R
ROCK SPRINGS   CLOUDY    67  47  48 SW12      30.13R
DIXON          CLOUDY    67  51  55 SW12G21   30.20R
RAWLINS        FAIR      67  49  52 SW15G21   30.11S
SARATOGA       PTSUNNY   68  46  45 SE7G20    30.17R
LARAMIE        FAIR      59  48  67 SE6       30.15R
CHEYENNE       FAIR      70  49  47 W10       30.03R
TORRINGTON     FAIR      67  59  75 CALM      29.87S
PINE BLUFFS    FAIR      61  55  82 S3        29.97S

$$



USA.gov is the U.S. government's official web portal to all federal, state and local government web resources and services.